COSMOS 1275 DEB, 12667

Orbit data source: Space-Track

COSMOS 1275 DEB, 12667 is space debris in LEO originally from a launch on Thu, 04 Jun 1981 UTC launched from the Plesetsk Missile And Space Complex (PKMTR). Debris objects in space refer to the collection of defunct objects orbiting the Earth. Examples of debris include non-operational satellites, rocket bodies, and fragments generated from explosions, collisions, or faulty payload assembly.

Loading next visibility...
Identifier
12667, 1981-053X
Orbit
LEO
Country
Flag of CISCIS
Related business
Manufacturer
Unknown
Mission
Spacecraft
Bus & Motor
Unknown
Mass
Unknown
Launch date (UTC)
1981-06-04 (45 years ago)
Launch vehicle
Unknown
Launch site
Plesetsk Missile And Space Complex (PKMTR)
Object type
Payload
Rocket body
Debris
Shape & HBR
Unknown shape, 0.1 m
Radar Cross Section
Small (<0.1 m²)

Expand to show TLE details & history
Last TLE update: 12 hours ago

TLE from 12 hours ago
0 COSMOS 1275 DEB
1 12667U 81053X   25351.52925340  .00000579  00000-0  51079-3 0  9991
2 12667  82.8373 156.3617 0034904 221.6228 202.5482 13.83402946229418
Epoch: 2025-12-17T12:42Z
TLE epoch observation values (Epoch: 2025-12-17T12:42:07.493Z)
Latitude
63.20405°
Longitude
-106.23574°
Altitude
986.355 km
Speed
7.352 km/s
True Right ascension
11h 22m 46s
True Declination
63° 04' 11"
Sunlit
Object was in daylight at epoch
Visualization orbit readout
Latitude
Unknown
Longitude
Unknown
Altitude
Unknown
Speed
Unknown
Apparent Right ascension
Unknown
Apparent Declination
Unknown
Sunlit
N/A
Visualization observer readout
Local Sidereal Time
23:09:32
Azimuth
Unknown
Elevation
Unknown
Doppler factor
Unknown
Orbital elements
Apogee altitude
974.557 km
Perigee altitude
923.408 km
Semi-major axis
7,327.12 km
Eccentricity
0.00349
Inclination
82.8373°
RAAN
156.3617°
Arg. of periapsis
221.6228°
True anomaly
202.39544°
Mean anomaly
202.5482°
Eccentric anomaly
202.47176°
Mean motion
3.46053 °/min
Orbital period
104.03 mins
BSTAR
0.00051079
Loading maneuver chart data...
Computing Atmospheric mass density...
Loading historical data...
Loading historical data...
Loading historical data...
Loading historical data...
Loading historical data...
Loading historical data...
Loading historical data...

Documentation

Showing up to 5 results
|